This is the latest recevied weather packets stored in our database for station/object WW3TRG. If no packets are shown the sender has not sent any weather packets the latest 10 day(s).
| Time | Temp. | Humidity | Pressure | Rain* | Wind** | Luminosity | Snow |
|---|---|---|---|---|---|---|---|
| 1788624624 | 25° C | 54% | 1011.8 hPa | 0 mm | - | 279 W/m² | - |
| 1788624318 | 25° C | 57% | 1011.7 hPa | 0 mm | - | 402 W/m² | - |
| 1788624018 | 25° C | 58% | 1011.6 hPa | 0 mm | - | 434 W/m² | - |
| 1788623718 | 25° C | 58% | 1011.6 hPa | 0 mm | - | 351 W/m² | - |
| 1788623416 | 25° C | 55% | 1011.7 hPa | 0 mm | - | 536 W/m² | - |
| 1788623112 | 25° C | 56% | 1011.8 hPa | 0 mm | - | 643 W/m² | - |
| 1788622807 | 25° C | 58% | 1011.5 hPa | 0 mm | - | 537 W/m² | - |
| 1788622503 | 25° C | 59% | 1011.8 hPa | 0 mm | - | 223 W/m² | - |
| 1788622203 | 24.44° C | 61% | 1011.8 hPa | 0 mm | - | 219 W/m² | - |
| 1788621903 | 24.44° C | 57% | 1011.6 hPa | 0 mm | - | 181 W/m² | - |
| 1788621597 | 24.44° C | 58% | 1011.4 hPa | 0 mm | - | 75 W/m² | - |
| 1788621292 | 23.89° C | 56% | 1011.8 hPa | 0 mm | - | 65 W/m² | - |
| 1788620987 | 23.89° C | 60% | 1011.5 hPa | 0 mm | - | 59 W/m² | - |
| 1788620710 | 23.89° C | 62% | 1011.5 hPa | 0 mm | - | 71 W/m² | - |
| 1788620378 | 23.33° C | 61% | 1011.6 hPa | 0 mm | - | 67 W/m² | - |
| 1788620073 | 23.33° C | 64% | 1011.5 hPa | 0 mm | - | 53 W/m² | - |
| 1788619773 | 23.33° C | 63% | 1011.6 hPa | 0 mm | - | 61 W/m² | - |
| 1788619468 | 23.33° C | 63% | 1011.7 hPa | 0 mm | - | 91 W/m² | - |
| 1788619167 | 23.33° C | 63% | 1011.5 hPa | 0 mm | - | 83 W/m² | - |
| 1788618861 | 23.33° C | 64% | 1011.9 hPa | 0 mm | - | 84 W/m² | - |
| 1788618555 | 23.33° C | 63% | 1011.6 hPa | 0 mm | - | 59 W/m² | - |
| 1788618254 | 22.78° C | 66% | 1011.7 hPa | 0 mm | - | 69 W/m² | - |
| 1788617950 | 22.78° C | 64% | 1011.7 hPa | 0 mm | - | 65 W/m² | - |
| 1788617645 | 22.78° C | 65% | 1011.7 hPa | 0 mm | - | 49 W/m² | - |
| 1788617341 | 22.78° C | 67% | 1011.8 hPa | 0 mm | - | 78 W/m² | - |
* Rain latest hour (hover to see other rain measurements)
** Current wind speed in m/s (hover to see current wind gust speed)